Skip Page Navigation
NASA JPL Caltech
NASA Logo - Jet Propulsion Laboratory + View the NASA Portal
+ Center for Near-Earth Object Studies
JPL Home Earth Solar System Stars & Galaxies Technology
JPL Solar System Dynamics
BODIES ORBITS EPHEMERIDES TOOLS PHYSICAL DATA DISCOVERY FAQ SITE MAP
IMPORTANT: The SSD Announcement email list is now available. Major changes are coming in the near future, including possible hostname and/or URL changes. To be notified of such changes, subscribe to this email list.

Please visit this page for more details.


JPL Small-Body Database Browser
Search: [ help ]  
277660 (2006 BP178)
Classification: Main-belt Asteroid          SPK-ID: 2277660
Ephemeris | Orbit Diagram | Orbital Elements | Mission Design | Physical Parameters | Discovery Circumstances ]

[ show orbit diagram ]
Orbital Elements at Epoch 2458600.5 (2019-Apr-27.0) TDB
Reference: JPL 11 (heliocentric ecliptic J2000)
 Element Value Uncertainty (1-sigma)   Units 
e .08978819093968403 5.5355e-08  
a 2.926651530367254 3.9237e-08 au
q 2.663872783944721 1.6494e-07 au
i 3.118470726368494 6.5323e-06 deg
node 121.5448499943744 0.00010588 deg
peri 212.3059521112376 0.00011145 deg
M 29.37481613996535 3.4909e-05 deg
tp 2458451.279804135087
(2018-Nov-28.77980414)
0.00017716 TDB
period 1828.752570072501
5.01
3.6777e-05
1.007e-07
d
yr
n .1968554991481039 3.9588e-09 deg/d
Q 3.189430276789788 4.276e-08 au
  Orbit Determination Parameters
   # obs. used (total)      164  
   data-arc span      5474 days (14.99 yr)  
   first obs. used      2004-11-04  
   last obs. used      2019-10-31  
   planetary ephem.      DE431  
   SB-pert. ephem.      SB431-N16  
   condition code      0  
   norm. resid. RMS      .69505  
   source      ORB  
   producer      Otto Matic  
   solution date      2019-Nov-08 05:24:30  

Additional Information
 Earth MOID = 1.65328 au 
 Jupiter MOID = 2.11381 au 
 T_jup = 3.270 
[ show covariance matrix ]

Ephemeris | Orbit Diagram | Orbital Elements | Mission Design | Physical Parameters | Discovery Circumstances ]

Physical Parameter Table
Parameter Symbol Value Units Sigma Reference Notes
absolute magnitude H 16.6   n/a MPO455060  

277660 (2006 BP178)          Discovered 2006-Jan-27 by Mt. Lemmon Survey at Mount Lemmon
Reference: 20110517/Numbers.arcLast Updated: 2011-05-20

Alternate Designations
 2006 BP178 = 2004 VT43 
Ephemeris | Orbit Diagram | Orbital Elements | Mission Design | Physical Parameters | Discovery Circumstances ]
ABOUT SSD CREDITS/AWARDS PRIVACY/COPYRIGHT GLOSSARY LINKS
FirstGov 2019-Dec-13 08:29 UT
(server date/time)  
NASA Home Page
Site Manager:   Ryan S. Park
Webmaster  Alan B. Chamberlin